FW7198 Weather Reports


time (UTC)temp
C
wind
direction
speed
KPH
gust
KPH
rain 1hr
cm
rain 24hr
cm
rain mn
cm
humidity
%
barometer
mb
20260906104558 21 0 0.0 0.0 0.00 0.10 0.00 98 1012.8
20260906103053 21 0 0.0 0.0 0.00 0.10 0.00 98 1012.9
20260906101550 21 0 0.0 0.0 0.00 0.10 0.00 98 1012.7
20260906100059 21 0 0.0 0.0 0.00 0.10 0.00 98 1012.5
20260906094558 21 0 0.0 0.0 0.00 0.10 0.00 98 1012.8
20260906093053 21 0 0.0 0.0 0.00 0.10 0.00 98 1012.8
20260906091551 21 0 0.0 0.0 0.00 0.10 0.00 97 1012.7
20260906090108 21 0 0.0 0.0 0.00 0.10 0.00 98 1012.8
20260906084557 21 0 0.0 0.0 0.00 0.10 0.00 97 1012.8
20260906083052 21 0 0.0 0.0 0.00 0.10 0.00 97 1012.8
20260906081556 21 0 0.0 0.0 0.00 0.10 0.00 98 1012.8
20260906080050 21 0 0.0 0.0 0.00 0.10 0.00 97 1012.7
20260906074613 21 0 0.0 0.0 0.00 0.10 0.00 97 1012.5
20260906073107 21 0 0.0 0.0 0.00 0.10 0.00 97 1012.7
20260906071605 21 0 0.0 0.0 0.00 0.10 0.00 97 1012.7
20260906070114 21 0 0.0 0.0 0.00 0.10 0.00 97 1012.9
20260906064552 21 0 0.0 0.0 0.00 0.10 0.00 97 1013.0
20260906063052 21 0 0.0 0.0 0.00 0.10 0.00 97 1013.0
20260906061610 21 0 0.0 0.0 0.00 0.10 0.00 97 1013.1
20260906060059 21 0 0.0 0.0 0.00 0.10 0.00 97 1013.5
20260906054555 21 0 0.0 0.0 0.00 0.10 0.00 97 1013.7
20260906053100 21 0 0.0 0.0 0.00 0.10 0.00 97 1013.6
20260906051601 21 0 0.0 0.0 0.00 0.10 0.00 97 1013.8
20260906050110 21 0 0.0 0.0 0.00 0.10 0.00 97 1013.7
20260906044600 21 0 0.0 0.0 0.00 0.10 0.00 97 1014.1
20260906043056 21 0 0.0 0.0 0.00 0.10 0.00 96 1013.8
20260906041602 21 0 0.0 0.0 0.00 0.10 0.00 96 1013.8
20260906040104 21 0 0.0 0.0 0.00 0.10 0.00 96 1013.7
20260906034558 21 0 0.0 0.0 0.00 0.10 0.10 96 1013.8
20260906033056 22 0 0.0 0.0 0.00 0.10 0.10 96 1013.7
20260906031606 21 0 0.0 0.0 0.00 0.10 0.10 96 1013.7
20260906024558 22 0 0.0 0.0 0.00 0.10 0.10 96 1014.2
20260906023102 22 0 0.0 0.0 0.00 0.10 0.10 95 1014.4
20260906021607 22 0 0.0 3.2 0.00 0.10 0.10 95 1014.5
20260906014604 22 263 0.0 1.6 0.00 0.10 0.10 95 1014.5
20260906013124 22 0 0.0 0.0 0.00 0.10 0.10 95 1013.8
20260906011601 22 0 0.0 0.0 0.00 0.10 0.10 95 1013.7
20260906010108 22 0 0.0 1.6 0.00 0.10 0.10 95 1013.9
20260906004600 22 0 0.0 1.6 0.00 0.10 0.10 95 1013.7
20260906003108 22 174 0.0 6.4 0.00 0.10 0.10 95 1013.3
20260906001605 22 0 0.0 0.0 0.00 0.10 0.10 95 1012.9
20260906000059 23 0 0.0 3.2 0.00 0.10 0.10 95 1012.6
20260905234607 22 0 0.0 1.6 0.00 0.10 0.10 95 1012.8
20260905233105 22 0 0.0 1.6 0.00 0.10 0.10 95 1012.6
20260905231602 22 284 0.0 1.6 0.00 0.10 0.10 94 1012.8
20260905230059 22 0 0.0 3.2 0.00 0.10 0.10 95 1012.9
20260905224609 22 0 0.0 0.0 0.00 0.10 0.10 94 1012.8
20260905223102 23 0 0.0 6.4 0.08 0.10 0.10 94 1012.9
20260905221606 23 290 0.0 3.2 0.10 0.10 0.10 94 1012.6
20260905220106 23 290 0.0 3.2 0.10 0.10 0.10 92 1012.9
20260905214603 24 290 0.0 3.2 0.10 0.10 0.10 90 1013.3
20260905213100 26 294 0.0 16.1 0.03 0.03 0.03 77 1013.2
20260905211617 31 0 6.4 17.7 0.00 0.00 0.00 59 1013.0
20260905210113 33 279 4.8 25.7 0.00 0.00 0.00 57 1012.0
20260905204605 34 0 0.0 6.4 0.00 0.00 0.00 52 1011.7
20260905203113 35 301 0.0 6.4 0.00 0.00 0.00 49 1012.2
20260905201604 35 0 3.2 6.4 0.00 0.00 0.00 47 1011.9
20260905200104 35 0 1.6 6.4 0.00 0.00 0.00 49 1012.3
20260905194557 35 152 1.6 17.7 0.00 0.00 0.00 49 1012.2
20260905193052 35 0 0.0 6.4 0.00 0.00 0.00 51 1012.3
20260905191559 36 304 1.6 9.7 0.00 0.00 0.00 49 1012.5
20260905190059 35 270 3.2 6.4 0.00 0.00 0.00 49 1012.8
20260905184602 35 0 1.6 4.8 0.00 0.00 0.00 53 1013.1
20260905183102 35 264 0.0 4.8 0.00 0.00 0.00 59 1013.0
20260905181612 33 0 0.0 6.4 0.00 0.00 0.00 57 1013.3
20260905180100 34 286 0.0 6.4 0.00 0.00 0.00 59 1013.2
20260905174555 35 312 1.6 11.3 0.00 0.00 0.00 57 1013.5
20260905173103 34 314 1.6 9.7 0.00 0.00 0.00 57 1013.7
20260905171602 33 186 1.6 4.8 0.00 0.00 0.00 59 1014.0
20260905170105 33 240 0.0 12.9 0.00 0.00 0.00 66 1014.1
20260905164605 33 306 1.6 12.9 0.00 0.00 0.00 62 1014.3
20260905163103 33 313 0.0 8.0 0.00 0.00 0.00 61 1014.6
20260905161559 32 284 1.6 6.4 0.00 0.00 0.00 71 1014.7
20260905160130 32 0 1.6 6.4 0.00 0.00 0.00 68 1014.8
20260905154603 32 292 0.0 4.8 0.00 0.00 0.00 70 1015.0
20260905153059 31 0 1.6 11.3 0.00 0.00 0.00 70 1015.1
20260905151604 31 296 1.6 8.0 0.00 0.00 0.00 73 1015.3
20260905150105 30 288 3.2 11.3 0.00 0.00 0.00 75 1015.5
20260905144605 28 281 0.0 9.7 0.00 0.00 0.00 80 1015.6
20260905143100 28 343 0.0 4.8 0.00 0.00 0.00 81 1015.7
20260905141559 28 308 1.6 4.8 0.00 0.00 0.00 81 1015.6
20260905140106 27 318 1.6 4.8 0.00 0.00 0.00 84 1015.7
20260905134610 26 0 0.0 0.0 0.00 0.00 0.00 90 1015.9
20260905133100 25 0 0.0 0.0 0.00 0.00 0.00 93 1015.8
20260905131602 25 0 0.0 3.2 0.00 0.00 0.00 95 1015.9
20260905124602 23 0 0.0 0.0 0.00 0.00 0.00 97 1015.9
20260905123059 23 0 0.0 0.0 0.00 0.00 0.00 97 1015.9
20260905121602 22 0 0.0 0.0 0.00 0.00 0.00 97 1015.9
20260905120119 22 0 0.0 0.0 0.00 0.00 0.00 97 1015.8
20260905114606 22 0 0.0 0.0 0.00 0.00 0.00 97 1015.6
20260905113101 21 0 0.0 0.0 0.00 0.00 0.00 97 1015.3
20260905111613 22 0 0.0 0.0 0.00 0.00 0.00 97 1015.1